Change the Weather History Date:

Thursday, June 26, 2014

  Actual Average Record
Temperature  
Mean Temperature 56 °F 63 °F  
Max Temperature 61 °F 74 °F 95 °F (1915)
Min Temperature 50 °F 52 °F 36 °F (1949)
Degree Days  
Heating Degree Days 9 3  
Month to date heating degree days 172 147  
Since 1 June heating degree days 172 147  
Since 1 July heating degree days 12481 13656  
Cooling Degree Days 0 1  
Month to date cooling degree days 0 13  
Year to date cooling degree days 0 14  
Since 1 June cooling degree days 0 13  
Growing Degree Days 6 (Base 50)    
Moisture  
Dew Point 48 °F    
Average Humidity 75    
Maximum Humidity 93    
Minimum Humidity 49    
Precipitation  
Precipitation 0.13 in 0.05 in 0.94 in (1995)
Month to date precipitation 3.20 1.13  
Year to date precipitation 4.29 3.29  
Snow  
Snow 0.00 in 0.00 in 0.00 in (2002)
Month to date snowfall 0.0 0.0  
Since 1 June snowfall 0.0 0.0  
Since 1 July snowfall 48.9 65.0  
Snow Depth 0.00 in    
Sea Level Pressure  
Sea Level Pressure 29.51 in    
Wind  
Wind Speed 6 mph (SSE)    
Max Wind Speed 10 mph    
Max Gust Speed -    
Visibility 7 miles    
Events Rain    
T = Trace of Precipitation, MM = Missing Value Source: NWS Daily Summary

Daily Weather History Graph

Daily Weather History Graph

Search for Another Location

Airport or City:

Trip Planner

Search our weather history database for the weather conditions in past years. The results will help you decide how hot, cold, wet, or windy it might be!

Date:

Astronomy

Jun. 26, 2014 Rise Set
Actual Time 3:03 AM AKDT 12:44 AM AKDT
Civil Twilight Sun does not rise Sun does not rise
Nautical Twilight Sun does not rise Sun does not rise
Astronomical Twilight Sun does not rise Sun does not rise
Moon 4:07 AM AKDT (6/26) 10:53 PM AKDT (6/26)
Length of Visible Light 24h 00m
Length of Day
21h 40m
Waning Crescent, 0% of the Moon is Illuminated
Jun 26
Waning Crescent
Jun 27
New
Jul 5
First Quarter
Jul 12
Full
Jul 18
Last Quarter

Hourly Weather History & Observations

Time (AKDT) Temp. Dew Point Humidity Pressure Visibility Wind Dir Wind Speed Gust Speed Precip Events Conditions
12:06 AM 57.0 °F 54.0 °F 89% 29.46 in 1.0 mi SE 3.5 mph - 0.01 in Rain Light Rain
12:53 AM 55.9 °F 54.0 °F 93% 29.47 in 1.5 mi SSE 4.6 mph - 0.06 in Rain Light Rain
1:53 AM 55.0 °F 52.0 °F 89% 29.47 in 1.5 mi SSW 4.6 mph - 0.04 in Rain Light Rain
2:53 AM 52.0 °F 48.9 °F 89% 29.48 in 1.0 mi SSE 10.4 mph - 0.07 in Rain Light Rain
3:53 AM 50.0 °F 46.9 °F 89% 29.49 in 2.0 mi SE 8.1 mph - 0.02 in Rain Light Rain
4:53 AM 50.0 °F 46.9 °F 89% 29.50 in 1.5 mi SE 8.1 mph - 0.00 in Rain Light Rain
5:53 AM 50.0 °F 48.0 °F 93% 29.49 in 1.5 mi ESE 5.8 mph - 0.00 in Rain Light Rain
6:28 AM 51.1 °F 48.0 °F 89% 29.48 in 2.0 mi East 4.6 mph - 0.00 in   Overcast
6:53 AM 52.0 °F 48.9 °F 89% 29.49 in 2.5 mi East 4.6 mph - 0.00 in   Overcast
7:16 AM 52.0 °F 48.9 °F 89% 29.48 in 3.0 mi NE 5.8 mph - N/A   Overcast
7:53 AM 53.1 °F 48.9 °F 86% 29.49 in 6.0 mi ENE 3.5 mph - N/A   Overcast
8:53 AM 54.0 °F 48.9 °F 83% 29.50 in 7.0 mi ENE 4.6 mph - N/A   Overcast
9:53 AM 55.0 °F 48.9 °F 80% 29.50 in 8.0 mi East 8.1 mph - N/A   Overcast
10:36 AM 55.9 °F 48.9 °F 77% 29.48 in 10.0 mi East 6.9 mph - N/A   Overcast
10:53 AM 57.0 °F 48.9 °F 74% 29.49 in 10.0 mi NE 5.8 mph - N/A   Mostly Cloudy
11:53 AM 57.9 °F 48.0 °F 70% 29.50 in 10.0 mi Calm Calm - N/A   Mostly Cloudy
12:53 PM 59.0 °F 46.9 °F 64% 29.50 in 10.0 mi Calm Calm - N/A   Overcast
1:53 PM 57.9 °F 46.9 °F 67% 29.51 in 10.0 mi West 5.8 mph - 0.00 in Rain Light Rain
2:53 PM 57.0 °F 46.9 °F 69% 29.52 in 10.0 mi West 8.1 mph - 0.00 in   Overcast
3:53 PM 61.0 °F 46.9 °F 60% 29.52 in 10.0 mi WSW 8.1 mph - 0.00 in Rain Light Rain
4:53 PM 61.0 °F 45.0 °F 56% 29.52 in 10.0 mi West 6.9 mph - 0.00 in   Mostly Cloudy
5:53 PM 61.0 °F 45.0 °F 56% 29.52 in 10.0 mi WSW 8.1 mph - N/A   Mostly Cloudy
6:53 PM 60.1 °F 44.1 °F 55% 29.53 in 10.0 mi West 4.6 mph - N/A   Mostly Cloudy
7:53 PM 59.0 °F 46.9 °F 64% 29.53 in 10.0 mi WNW 8.1 mph - N/A   Mostly Cloudy
8:53 PM 57.0 °F 46.0 °F 67% 29.55 in 10.0 mi West 4.6 mph - N/A   Mostly Cloudy
9:53 PM 55.0 °F 45.0 °F 69% 29.55 in 10.0 mi WNW 6.9 mph - N/A   Mostly Cloudy
10:53 PM 55.0 °F 45.0 °F 69% 29.56 in 10.0 mi Calm Calm - N/A   Mostly Cloudy
11:53 PM 54.0 °F 44.1 °F 69% 29.56 in 10.0 mi SSW 3.5 mph - N/A   Mostly Cloudy